User: anonymous   Login
Location: Caltech
(34.1382°N, 118.1253°W)
Time: 20:37:56
(UTC-07:00)
Language:

Cosmos 2084 - Orbit

View from above orbital plane
View from above orbital plane
View from above satellite
View from above satellite

Ground track
Ground track

The orbit data is extracted from the following two-line orbital elements,

1 20663U 90055A   16241.09992854  .00000304  00000-0  44023-4 0  9990
2 20663  62.7926 126.1439 0130137  61.0990 300.3086 14.91304417416091
Epoch (UTC): 28 August 2016 02:23:53
Eccentricity: 0.0130137
inclination: 62.7926°
perigee height: 503 km
apogee height: 684 km
right ascension of ascending node: 126.1439°
argument of perigee: 61.0990°
revolutions per day: 14.91304417
mean anomaly at epoch: 300.3086°
orbit number at epoch: 41609

The dashed part of the orbit path shows where the satellite is in the earth's shadow,  

DLR